Location: Orange
(33.2833°S, 149.1000°E)
Time: 22:18:32
(UTC+10:00)

Hubble Space Telescope - Visible Passes

Search period start: 29 September 2022 00:00
Search period end: 09 October 2022 01:00
Orbit: 531 x 535 km, 28.5° (Epoch: 29 September)

Date Brightness Start Highest point End Pass type
(mag) Time Alt. Az. Time Alt. Az. Time Alt. Az.
29 Sep 2.6 04:36:03 13° NNW 04:38:33 21° NNE 04:41:44 10° ENE visible
30 Sep 2.4 04:24:33 19° NNW 04:26:16 25° NNE 04:29:40 10° ENE visible
01 Oct 2.1 04:12:59 25° N 04:13:57 28° NNE 04:17:33 10° ENE visible
02 Oct 1.8 05:01:24 31° N 05:01:40 31° NNE 05:05:22 10° ENE visible
03 Oct 1.8 04:49:47 34° NNE 04:49:47 34° NNE 04:53:10 10° ENE visible
04 Oct 2.1 04:38:09 32° NE 04:38:09 32° NE 04:40:57 10° ENE visible
05 Oct 2.5 04:26:32 26° NE 04:26:32 26° NE 04:28:42 10° ENE visible
05 Oct 1.6 06:01:45 10° WNW 06:05:36 38° N 06:09:28 10° ENE visible
06 Oct 3.0 04:14:56 20° ENE 04:14:56 20° ENE 04:16:26 10° ENE visible
06 Oct 1.7 05:50:10 14° WNW 05:53:19 35° N 05:57:05 10° ENE visible
07 Oct 3.4 04:03:22 15° ENE 04:03:22 15° ENE 04:04:09 10° ENE visible
07 Oct 1.8 05:38:36 18° WNW 05:41:00 32° NNW 05:44:41 10° NE visible
08 Oct 1.9 05:27:07 22° NW 05:28:40 28° NNW 05:32:15 10° NE visible
